SCP
-0 -0 0 -0 -0 0 -0 -0 0 -0 -0 -0 -0 0 0 0 0 0 0 -0 -0 -0 -0 -0 -0 -0 -0 0 -0 -0 -0 -0 -0 -0 -0 -0 -0 -0 -0 -0 -0 -0 -0 -0 -0 -0 -0 -0 -0
-0 0 -0 -0 -0 0 -0 -0 0 0 0 0 0 -0 -0 0 0 0 0 -0 -0 -0 -0 -0 -0 -0 -0 0 0 -0 0 -0 -0 -0 -0 -0 -0 -0 -0 -0 -0 -0 -0 -0 -0 -0 -0 -0 -0
-0 -0 0 -0 -0 0 0 -0 0 0 0 0 -0 -0 -0 0 -0 0 0 -0 -0 -0 -0 -0 -0 -0 -0 -0 -0 -0 -0 -0 -0 -0 -0 -0 -0 -0 -0 -0 0 -0 -0 -0 -0 -0 -0 -0 -0
-0 0 0 0 0 0 -0 0 0 0 0 0 0 -0 0 -0 0 0 0 0 -0 -0 -0 -0 -0 -0 -0 -0 -0 -0 -0 -0 -0 0 -0 -0 -0 -0 -0 0 0 -0 -0 -0 -0 -0 -0 -0 -0
0 0 0 0 0 0 -0 -0 0 -0 0 0 0 -0 -0 -0 -0 0 0 0 0 -0 -0 -0 -0 -0 -0 -0 -0 -0 -0 -0 -0 0 -0 -0 -0 -0 -0 -0 -0 -0 -0 -0 -0 -0 -0 -0 -0
0 0 0 0 0 0 0 0 -0 0 -0 0 0 0 -0 0 0 0 0 0 0 0 -0 0 0 -0 -0 -0 -0 -0 -0 -0 -0 -0 -0 -0 -0 -0 -0 0 0 -0 -0 -0 -0 -0 -0 -0 -0
0 0 0 0 0 0 0 0 0 0 0 0 -0 0 0 0 0 0 0 0 0 0 0 -0 0 0 0 0 0 -0 -0 -0 -0 -0 -0 -0 -0 -0 -0 0 0 -0 -0 -0 -0 0 0 0 0
0 0 0 0 0 0 0 0 0 0 0 0 0 0 -0 0 0 0 0 0 0 0 0 0 0 -0 0 0 0 0 0 -0 -0 -0 -0 -0 0 0 0 0 0 0 0 0 0 0 0 0 0
0 0 0 0 0 0 0 0 0 0 -0 0 0 0 0 -0 -0 0 0 0 0 0 0 0 0 -0 -0 0 0 0 0 0 0 0 0 0 0 0 0 0 0 0 0 0 0 0 0 0 0
0 0 0 0 0 0 0 0 0 0 0 0 0 0 0 -0 0 -0 0 0 0 0 0 0 0 0 -0 0 0 0 0 0 0 0 0 0 0 0 0 0 0 0 0 0 0 0 0 0 0
0 0 0 0 0 0 0 0 0 0 0 0 0 0 0 0 -0 -0 0 0 0 0 0 0 0 0 0 -0 0 0 0 0 0 0 0 0 0 0 0 0 0 0 0 0 0 0 0 0 0
0 0 0 0 0 0 0 0 0 0 0 0 0 0 0 -0 -0 -0 -0 0 0 0 0 0 0 0 0 0 0 0 0 0 0 0 0 0 0 0 0 0 0 0 0 0 0 0 0 0 0
0 0 0 0 0 0 0 0 0 0 0 0 0 0 0 0 0 0 0 0 0 0 0 0 0 0 0 0 0 0 0 0 0 0 0 0 0 0 0 0 0 0 0 0 0 0 0 0 0
0 0 0 0 0 0 0 0 0 0 0 0 0 0 0 0 0 0 0 0 0 0 0 0 0 0 0 0 0 0 0 0 0 0 0 0 0 0 0 0 0 0 0 0 0 0 0 0 0
0 0 0 0 0 0 0 0 0 0 0 0 0 0 0 0 0 0 0 0 0 0 0 0 0 0 0 0 0 0 0 0 0 0 0 0 0 0 0 0 0 0 0 0 0 0 0 0 0
0 0 0 0 0 0 0 0 0 0 0 0 0 0 0 0 0 0 0 0 0 0 0 0 0 0 0 0 0 0 0 0 0 0 0 0 0 0 0 0 0 0 0 0 0 0 0 0 0
0 0 0 0 0 0 0 0 0 0 0 0 0 0 0 0 0 0 0 0 0 0 0 0 0 0 0 0 0 0 0 0 0 0 0 0 0 0 0 0 0 0 0 0 0 0 0 0 0
0 0 0 0 0 0 0 0 0 0 0 0 0 0 0 0 0 0 0 0 0 0 0 0 0 0 0 0 0 0 0 0 0 0 0 0 0 0 0 0 0 0 0 0 0 0 0 0 0
0 0 0 0 0 0 0 0 0 0 0 0 0 0 0 0 0 0 0 0 0 0 0 0 0 0 0 0 0 0 0 0 0 0 0 0 0 0 0 0 0 0 0 0 0 0 0 0 0
0 0 0 0 0 0 0 0 0 0 0 0 0 0 0 0 0 0 0 0 0 0 0 0 0 0 0 0 0 0 0 0 0 0 0 0 0 0 0 0 0 0 0 0 0 0 0 0 0
0 0 0 0 0 0 0 0 0 0 0 0 0 0 0 0 0 0 0 0 0 0 0 0 0 0 0 0 0 0 0 0 0 0 0 0 0 0 0 0 0 0 0 0 0 0 0 0 0
0 0 0 0 0 0 0 0 0 0 0 0 0 0 0 0 0 0 0 0 0 0 0 0 0 0 0 0 0 0 0 0 0 0 0 0 0 0 0 0 0 0 0 0 0 0 0 0 0
0 0 0 0 0 0 0 0 0 0 0 0 0 0 0 0 0 0 0 0 0 0 0 0 0 0 0 0 0 0 0 0 0 0 0 0 0 0 0 0 0 0 0 0 0 0 0 0 0
0 0 0 0 0 0 0 0 0 0 0 0 0 0 0 0 0 0 0 0 0 0 0 0 0 0 0 0 0 0 0 0 0 0 0 0 0 0 0 0 0 0 0 0 0 0 0 0 0
0 0 0 0 0 0 0 0 0 0 0 0 0 0 0 0 0 0 0 0 0 0 0 0 0 0 0 0 0 0 0 0 0 0 0 0 0 0 0 0 0 0 0 0 0 0 0 0 0
0 0 0 0 0 0 0 0 0 0 0 0 0 0 0 0 0 0 0 0 0 0 0 0 0 0 0 0 0 0 0 0 0 0 0 0 0 0 0 0 0 0 0 0 0 0 0 0 0
0 0 0 0 0 0 0 0 0 0 0 0 0 0 0 0 0 0 0 0 0 0 0 0 0 0 0 0 0 0 0 0 0 0 0 0 0 0 0 0 0 0 0 0 0 0 0 0 0
0 0 0 0 0 0 0 0 0 0 0 0 0 0 0 0 0 0 0 0 0 0 0 0 0 0 0 0 0 0 0 0 0 0 0 0 0 0 0 0 0 0 0 0 0 0 0 0 0
0 0 0 0 0 0 0 0 0 0 0 0 0 0 0 0 0 0 0 0 0 0 0 0 0 0 0 0 0 0 0 0 0 0 0 0 0 0 0 0 0 0 0 0 0 0 0 0 0
0 0 0 0 0 0 0 0 0 0 0 0 0 0 0 0 0 0 0 0 0 0 0 0 0 0 0 0 0 0 0 0 0 0 0 0 0 0 0 0 0 0 0 0 0 0 0 0 0
Wind_Speed_500mb
48 54 33 5 9 10 2 5 2 3 4 4 7 13 11 7 4 6 30 21 17 25 28 27 25 24 21 13 9 7 8 12 17 16 18 17 17 19 19 21 28 25 24 25 25 27 24 26 26
50 50 16 6 9 7 7 5 10 5 12 26 15 10 6 4 5 14 33 25 19 21 30 31 30 25 18 13 6 7 7 11 17 19 21 16 15 17 20 22 26 24 24 23 23 23 23 21 25
42 34 10 8 7 6 8 7 8 9 18 4 6 9 4 3 6 20 18 30 24 23 27 30 30 25 18 11 6 7 6 11 16 17 22 14 15 16 19 21 22 23 22 22 21 20 19 18 20
31 12 9 8 3 5 7 11 12 10 6 3 13 8 4 4 8 19 23 27 24 27 26 26 28 26 20 13 9 5 7 11 12 16 16 15 14 14 18 19 19 20 20 21 18 17 16 14 15
20 8 8 6 7 7 3 11 26 10 11 10 9 5 3 13 10 12 19 26 25 28 28 27 27 26 22 16 10 6 9 14 17 21 16 21 16 16 14 16 18 18 19 19 17 16 13 9 10
9 5 8 0 7 10 3 8 4 7 13 16 10 12 7 16 17 13 17 25 21 24 28 29 29 27 23 19 13 8 9 15 21 24 21 24 17 15 16 15 15 17 17 16 15 14 11 7 5
7 7 6 4 6 5 2 4 6 6 5 5 14 8 6 18 18 15 18 23 24 22 25 31 31 30 26 22 20 14 9 12 16 18 19 21 19 12 16 15 14 14 15 15 13 12 10 7 4
5 8 4 5 4 1 7 2 3 11 7 14 10 6 7 21 21 23 28 25 26 24 24 30 34 33 30 27 23 18 13 14 18 19 19 20 21 20 13 14 14 15 14 13 12 12 10 9 8
2 7 5 6 3 6 18 10 4 2 12 12 11 5 5 21 27 33 36 36 34 31 28 28 35 36 33 30 28 23 20 20 22 23 21 18 15 15 14 13 15 16 14 13 13 13 13 12 10
5 6 13 7 2 3 12 6 9 3 5 5 6 6 9 27 31 34 39 39 40 37 33 31 36 38 37 37 33 31 28 25 23 26 26 23 21 18 18 17 19 18 17 17 17 17 16 14 13
8 11 8 8 4 9 9 13 11 1 5 6 5 9 15 28 34 35 37 38 32 31 34 32 33 39 43 43 40 38 35 32 28 28 29 29 27 26 24 23 22 21 21 22 21 21 19 17 15
6 16 14 6 5 8 8 12 16 13 9 4 10 10 15 27 33 34 38 40 39 38 36 36 36 38 44 46 46 44 43 39 36 32 31 34 33 31 29 28 25 25 26 26 25 24 23 22 19
6 7 14 23 17 18 22 20 19 22 25 21 11 10 15 24 30 32 36 39 43 45 43 42 42 42 42 46 50 50 51 49 43 39 37 38 36 34 32 31 31 29 31 30 29 29 29 26 24
5 12 13 10 16 16 11 16 16 6 23 20 19 18 15 26 30 38 40 43 47 49 51 47 49 47 46 48 48 51 51 54 51 46 43 42 42 40 38 35 35 35 35 33 33 33 33 31 30
11 6 9 12 14 12 3 13 32 31 32 38 31 29 29 31 36 41 43 47 47 47 51 55 56 54 53 53 52 51 52 50 56 52 47 47 46 44 43 42 40 35 36 36 39 38 39 38 34
9 1 2 7 24 16 16 25 13 15 24 34 47 47 48 44 38 41 42 49 53 50 50 52 58 62 61 58 57 56 57 58 56 53 52 51 49 48 47 47 45 38 40 42 44 41 43 42 39
4 6 11 14 20 10 17 13 15 18 36 48 50 54 43 43 35 30 36 42 50 56 54 52 56 62 65 66 63 63 62 65 62 60 57 57 55 52 51 51 48 43 44 47 48 47 47 46 43
15 11 12 13 11 16 17 23 21 44 47 53 49 45 46 48 41 31 31 30 29 35 49 58 55 59 62 65 69 71 69 69 68 69 67 63 63 58 54 56 52 50 52 53 53 53 50 50 46
15 11 14 7 9 5 15 28 31 48 39 48 57 57 63 61 53 51 46 43 42 44 45 46 57 58 64 69 73 78 80 77 75 73 73 72 68 65 62 63 61 58 60 58 56 55 54 55 51
10 16 11 7 7 4 13 33 26 28 45 47 48 53 58 55 58 61 53 55 53 54 58 55 56 59 65 69 73 78 78 82 79 78 76 76 76 71 71 72 70 66 66 64 65 62 60 62 54
35 28 11 4 1 5 11 29 29 17 43 48 45 47 40 39 41 49 57 63 66 70 64 62 60 60 66 69 75 79 82 85 86 86 85 85 81 77 78 77 75 74 73 74 73 71 69 67 61
40 30 11 11 7 11 12 23 16 7 17 17 47 44 38 41 46 53 59 67 69 61 57 59 64 67 64 72 84 84 86 90 84 84 89 90 88 84 81 81 81 80 79 81 82 79 76 72 73
18 16 28 13 13 9 14 6 9 5 14 12 30 37 43 48 51 53 51 52 62 53 56 58 56 59 70 78 78 85 91 92 89 90 89 93 94 89 88 87 86 87 89 87 87 88 85 81 80
14 11 8 8 11 17 43 18 40 16 11 9 24 46 51 56 58 55 51 52 54 45 47 49 54 60 59 68 78 85 84 85 93 94 94 89 94 95 92 89 91 93 94 93 92 94 93 86 87
12 15 8 13 18 29 19 15 43 7 6 10 25 51 52 56 57 57 54 50 48 50 56 48 45 44 50 58 69 80 88 91 95 95 98 98 100 99 95 91 90 93 96 96 97 98 97 96 93
40 28 10 18 11 16 10 20 28 1 26 44 53 56 57 50 42 42 31 11 10 16 16 18 25 27 29 41 54 65 78 88 97 102 105 107 106 103 98 98 91 91 90 94 98 102 100 100 99
23 34 22 8 4 5 10 14 16 17 16 26 25 29 34 15 18 27 22 23 23 22 22 24 26 21 15 25 40 53 64 73 82 89 96 103 105 106 106 101 100 95 93 92 94 95 94 101 101
24 18 18 16 17 18 9 8 19 4 13 6 9 14 20 27 22 20 18 19 18 17 17 15 17 20 16 13 14 25 41 57 68 76 86 90 95 99 99 100 98 94 91 93 93 90 85 92 97
14 19 11 7 13 12 6 15 13 20 16 11 14 24 28 30 28 22 18 17 19 19 21 22 21 22 23 25 25 28 32 37 44 60 75 82 86 91 94 94 97 90 87 89 95 94 85 89 93
45 45 46 16 21 14 5 19 5 13 13 34 28 29 27 20 14 10 12 15 18 20 21 23 30 34 34 37 40 41 39 42 47 53 56 62 75 80 86 87 91 93 89 91 90 96 88 84 94
Wind_Direction_500mb
342 345 345 16 53 67 325 254 270 121 43 357 80 113 138 89 156 192 152 157 157 169 163 157 155 158 163 155 114 100 116 122 122 123 119 119 117 120 125 131 122 125 111 108 108 106 103 94 82
341 344 352 51 83 70 279 267 179 207 130 114 81 64 55 110 149 151 155 160 165 181 173 168 163 168 171 151 120 97 134 145 139 136 128 121 119 122 117 122 119 111 110 113 114 115 107 92 74
340 344 8 79 103 159 184 212 208 127 151 162 91 60 53 132 186 167 169 163 170 188 186 177 171 169 164 153 125 83 135 165 159 140 130 122 127 125 125 127 120 114 121 120 121 120 112 89 75
343 349 53 70 57 243 209 185 184 144 115 122 140 83 115 211 171 164 166 173 181 184 190 189 179 173 168 164 145 111 135 171 166 143 150 138 139 129 135 126 122 127 124 124 129 127 112 97 81
353 15 40 73 307 297 314 184 174 165 155 151 164 204 179 165 176 189 192 184 188 193 191 196 193 185 180 173 162 160 161 173 170 162 155 138 160 151 143 140 137 133 131 134 141 130 123 108 90
13 45 56 34 313 311 44 180 249 180 164 154 141 149 189 192 211 207 202 191 195 206 200 196 199 198 195 184 175 196 186 184 182 182 153 151 171 165 169 158 148 140 141 148 146 141 141 136 112
75 76 180 199 280 321 31 175 218 181 177 195 157 131 250 199 202 207 198 199 205 210 212 205 203 205 206 201 189 189 196 190 200 204 179 173 177 186 176 165 157 153 162 158 155 158 161 168 176
5 91 126 247 271 3 346 96 55 180 183 141 195 204 260 198 196 196 200 210 218 223 222 218 210 210 214 214 208 198 188 183 202 208 206 193 185 191 166 168 166 181 178 169 177 179 179 193 208
353 61 178 228 145 296 358 10 34 123 152 182 196 215 250 191 193 196 204 213 218 222 226 224 221 217 216 222 219 213 204 197 200 209 212 212 197 199 212 178 188 199 193 193 200 203 203 213 226
130 130 216 220 152 35 347 9 334 314 173 189 210 244 214 196 201 208 213 219 224 225 224 228 227 227 224 221 223 225 221 215 209 211 216 215 211 209 214 213 210 210 210 214 215 218 220 225 235
195 178 217 244 288 26 336 317 335 166 252 206 255 282 213 202 209 218 227 231 240 240 235 235 231 232 232 230 227 226 230 230 224 219 220 220 219 219 220 221 223 224 223 224 227 230 235 239 244
200 221 218 205 234 326 315 321 304 260 240 246 301 297 242 217 222 229 233 236 236 240 245 243 240 236 232 235 235 234 233 234 231 228 228 229 228 227 226 226 230 231 231 232 233 237 241 245 250
220 234 224 239 280 286 279 273 259 264 260 281 290 289 256 241 239 244 243 244 246 246 248 244 242 241 236 237 238 238 238 235 237 236 236 238 236 234 233 232 234 236 239 240 240 242 245 249 255
229 204 258 279 282 281 240 268 270 213 241 249 280 291 266 248 256 247 244 244 249 252 252 251 244 243 242 241 241 243 246 239 236 238 243 246 245 242 241 241 243 242 245 244 245 247 249 250 252
260 316 308 227 222 249 213 278 241 244 254 270 273 275 266 260 265 264 262 256 258 264 258 254 251 247 245 246 246 247 249 250 241 242 244 246 247 246 245 245 247 248 249 249 246 246 250 253 255
155 134 237 266 195 230 163 260 263 241 259 264 267 268 260 267 270 269 271 267 265 264 265 261 252 249 249 248 248 248 248 248 246 244 245 246 248 250 250 250 250 250 250 250 250 249 251 255 255
332 179 220 291 205 173 194 252 252 239 244 257 259 267 266 271 277 273 266 273 269 270 267 265 256 252 251 250 250 250 250 250 251 251 248 245 248 250 252 252 253 251 251 250 251 252 253 255 257
187 186 226 209 222 210 229 248 263 257 270 269 264 264 271 280 266 273 281 285 287 286 272 265 259 256 255 251 249 250 251 251 252 252 252 251 250 250 252 254 252 249 249 249 250 252 254 257 260
162 194 196 221 244 192 237 257 258 270 267 264 265 267 262 264 271 274 275 279 276 276 277 270 264 261 254 249 247 247 248 248 249 252 251 252 253 254 255 255 252 248 248 250 252 254 256 257 258
198 212 214 270 265 175 293 273 265 260 264 253 261 269 268 267 262 262 267 268 268 276 271 268 266 265 260 258 256 253 253 254 255 256 256 257 254 253 254 254 254 252 252 251 250 249 250 254 252
222 214 178 170 319 277 22 288 267 243 255 261 258 261 261 253 252 248 254 267 273 277 272 267 270 268 267 267 259 255 253 256 257 254 254 254 254 254 252 254 255 256 254 255 255 252 251 252 253
221 222 144 173 121 233 148 270 216 227 239 239 241 234 238 247 253 258 263 271 278 279 277 270 268 270 269 267 259 258 257 256 261 264 262 260 259 258 255 254 254 256 257 254 256 257 253 252 253
223 159 201 184 220 33 243 266 272 221 240 235 247 248 252 261 267 270 271 277 284 289 282 280 274 271 267 264 265 263 260 262 265 264 266 269 268 260 260 257 255 255 255 257 256 257 256 254 253
130 82 86 148 175 233 236 195 270 225 203 215 250 257 262 267 272 281 283 283 290 289 282 285 282 274 268 264 264 262 265 266 266 267 268 269 272 271 264 260 259 257 256 258 259 259 260 257 257
170 126 163 210 209 230 186 175 242 263 331 216 262 268 268 277 280 282 284 286 284 279 280 279 274 288 274 268 266 266 265 265 266 269 271 271 271 273 276 272 265 261 260 260 259 260 261 260 257
196 192 182 205 198 235 149 223 234 141 233 254 261 269 275 277 287 291 298 320 42 37 12 325 299 292 284 273 272 273 270 268 269 270 272 273 273 275 277 278 277 271 268 265 261 260 262 263 263
188 209 200 98 123 75 211 284 300 258 246 251 273 277 272 291 101 94 77 67 68 65 44 36 32 25 326 298 281 277 278 277 277 278 278 277 278 278 278 280 279 278 277 272 267 263 265 266 266
179 148 191 207 209 227 244 250 230 246 246 253 268 125 94 115 99 90 81 66 51 34 16 4 0 10 6 352 322 293 282 281 280 280 279 279 279 279 279 279 279 279 279 277 271 265 267 267 267
168 194 208 187 196 204 231 248 202 223 216 176 164 103 112 107 100 92 67 36 13 353 338 335 327 326 322 321 319 314 310 304 293 282 279 279 280 279 278 279 278 278 277 274 273 270 266 265 269
202 205 199 200 221 223 205 245 219 231 199 158 137 128 123 115 103 71 33 24 16 11 2 344 325 322 323 315 313 311 307 303 303 306 299 282 276 278 278 278 279 278 277 276 275 274 271 271 267
Wind_Speed_850mb
48 54 33 5 9 10 2 5 2 3 4 4 7 13 11 7 4 6 30 21 17 25 28 27 25 24 21 13 9 7 8 12 17 16 18 17 17 19 19 21 28 25 24 25 25 27 24 26 26
50 50 16 6 9 7 7 5 10 5 12 26 15 10 6 4 5 14 33 25 19 21 30 31 30 25 18 13 6 7 7 11 17 19 21 16 15 17 20 22 26 24 24 23 23 23 23 21 25
42 34 10 8 7 6 8 7 8 9 18 4 6 9 4 3 6 20 18 30 24 23 27 30 30 25 18 11 6 7 6 11 16 17 22 14 15 16 19 21 22 23 22 22 21 20 19 18 20
31 12 9 8 3 5 7 11 12 10 6 3 13 8 4 4 8 19 23 27 24 27 26 26 28 26 20 13 9 5 7 11 12 16 16 15 14 14 18 19 19 20 20 21 18 17 16 14 15
20 8 8 6 7 7 3 11 26 10 11 10 9 5 3 13 10 12 19 26 25 28 28 27 27 26 22 16 10 6 9 14 17 21 16 21 16 16 14 16 18 18 19 19 17 16 13 9 10
9 5 8 0 7 10 3 8 4 7 13 16 10 12 7 16 17 13 17 25 21 24 28 29 29 27 23 19 13 8 9 15 21 24 21 24 17 15 16 15 15 17 17 16 15 14 11 7 5
7 7 6 4 6 5 2 4 6 6 5 5 14 8 6 18 18 15 18 23 24 22 25 31 31 30 26 22 20 14 9 12 16 18 19 21 19 12 16 15 14 14 15 15 13 12 10 7 4
5 8 4 5 4 1 7 2 3 11 7 14 10 6 7 21 21 23 28 25 26 24 24 30 34 33 30 27 23 18 13 14 18 19 19 20 21 20 13 14 14 15 14 13 12 12 10 9 8
2 7 5 6 3 6 18 10 4 2 12 12 11 5 5 21 27 33 36 36 34 31 28 28 35 36 33 30 28 23 20 20 22 23 21 18 15 15 14 13 15 16 14 13 13 13 13 12 10
5 6 13 7 2 3 12 6 9 3 5 5 6 6 9 27 31 34 39 39 40 37 33 31 36 38 37 37 33 31 28 25 23 26 26 23 21 18 18 17 19 18 17 17 17 17 16 14 13
8 11 8 8 4 9 9 13 11 1 5 6 5 9 15 28 34 35 37 38 32 31 34 32 33 39 43 43 40 38 35 32 28 28 29 29 27 26 24 23 22 21 21 22 21 21 19 17 15
6 16 14 6 5 8 8 12 16 13 9 4 10 10 15 27 33 34 38 40 39 38 36 36 36 38 44 46 46 44 43 39 36 32 31 34 33 31 29 28 25 25 26 26 25 24 23 22 19
6 7 14 23 17 18 22 20 19 22 25 21 11 10 15 24 30 32 36 39 43 45 43 42 42 42 42 46 50 50 51 49 43 39 37 38 36 34 32 31 31 29 31 30 29 29 29 26 24
5 12 13 10 16 16 11 16 16 6 23 20 19 18 15 26 30 38 40 43 47 49 51 47 49 47 46 48 48 51 51 54 51 46 43 42 42 40 38 35 35 35 35 33 33 33 33 31 30
11 6 9 12 14 12 3 13 32 31 32 38 31 29 29 31 36 41 43 47 47 47 51 55 56 54 53 53 52 51 52 50 56 52 47 47 46 44 43 42 40 35 36 36 39 38 39 38 34
9 1 2 7 24 16 16 25 13 15 24 34 47 47 48 44 38 41 42 49 53 50 50 52 58 62 61 58 57 56 57 58 56 53 52 51 49 48 47 47 45 38 40 42 44 41 43 42 39
4 6 11 14 20 10 17 13 15 18 36 48 50 54 43 43 35 30 36 42 50 56 54 52 56 62 65 66 63 63 62 65 62 60 57 57 55 52 51 51 48 43 44 47 48 47 47 46 43
15 11 12 13 11 16 17 23 21 44 47 53 49 45 46 48 41 31 31 30 29 35 49 58 55 59 62 65 69 71 69 69 68 69 67 63 63 58 54 56 52 50 52 53 53 53 50 50 46
15 11 14 7 9 5 15 28 31 48 39 48 57 57 63 61 53 51 46 43 42 44 45 46 57 58 64 69 73 78 80 77 75 73 73 72 68 65 62 63 61 58 60 58 56 55 54 55 51
10 16 11 7 7 4 13 33 26 28 45 47 48 53 58 55 58 61 53 55 53 54 58 55 56 59 65 69 73 78 78 82 79 78 76 76 76 71 71 72 70 66 66 64 65 62 60 62 54
35 28 11 4 1 5 11 29 29 17 43 48 45 47 40 39 41 49 57 63 66 70 64 62 60 60 66 69 75 79 82 85 86 86 85 85 81 77 78 77 75 74 73 74 73 71 69 67 61
40 30 11 11 7 11 12 23 16 7 17 17 47 44 38 41 46 53 59 67 69 61 57 59 64 67 64 72 84 84 86 90 84 84 89 90 88 84 81 81 81 80 79 81 82 79 76 72 73
18 16 28 13 13 9 14 6 9 5 14 12 30 37 43 48 51 53 51 52 62 53 56 58 56 59 70 78 78 85 91 92 89 90 89 93 94 89 88 87 86 87 89 87 87 88 85 81 80
14 11 8 8 11 17 43 18 40 16 11 9 24 46 51 56 58 55 51 52 54 45 47 49 54 60 59 68 78 85 84 85 93 94 94 89 94 95 92 89 91 93 94 93 92 94 93 86 87
12 15 8 13 18 29 19 15 43 7 6 10 25 51 52 56 57 57 54 50 48 50 56 48 45 44 50 58 69 80 88 91 95 95 98 98 100 99 95 91 90 93 96 96 97 98 97 96 93
40 28 10 18 11 16 10 20 28 1 26 44 53 56 57 50 42 42 31 11 10 16 16 18 25 27 29 41 54 65 78 88 97 102 105 107 106 103 98 98 91 91 90 94 98 102 100 100 99
23 34 22 8 4 5 10 14 16 17 16 26 25 29 34 15 18 27 22 23 23 22 22 24 26 21 15 25 40 53 64 73 82 89 96 103 105 106 106 101 100 95 93 92 94 95 94 101 101
24 18 18 16 17 18 9 8 19 4 13 6 9 14 20 27 22 20 18 19 18 17 17 15 17 20 16 13 14 25 41 57 68 76 86 90 95 99 99 100 98 94 91 93 93 90 85 92 97
14 19 11 7 13 12 6 15 13 20 16 11 14 24 28 30 28 22 18 17 19 19 21 22 21 22 23 25 25 28 32 37 44 60 75 82 86 91 94 94 97 90 87 89 95 94 85 89 93
45 45 46 16 21 14 5 19 5 13 13 34 28 29 27 20 14 10 12 15 18 20 21 23 30 34 34 37 40 41 39 42 47 53 56 62 75 80 86 87 91 93 89 91 90 96 88 84 94
Wind_Direction_850mb
342 345 345 16 53 67 325 254 270 121 43 357 80 113 138 89 156 192 152 157 157 169 163 157 155 158 163 155 114 100 116 122 122 123 119 119 117 120 125 131 122 125 111 108 108 106 103 94 82
341 344 352 51 83 70 279 267 179 207 130 114 81 64 55 110 149 151 155 160 165 181 173 168 163 168 171 151 120 97 134 145 139 136 128 121 119 122 117 122 119 111 110 113 114 115 107 92 74
340 344 8 79 103 159 184 212 208 127 151 162 91 60 53 132 186 167 169 163 170 188 186 177 171 169 164 153 125 83 135 165 159 140 130 122 127 125 125 127 120 114 121 120 121 120 112 89 75
343 349 53 70 57 243 209 185 184 144 115 122 140 83 115 211 171 164 166 173 181 184 190 189 179 173 168 164 145 111 135 171 166 143 150 138 139 129 135 126 122 127 124 124 129 127 112 97 81
353 15 40 73 307 297 314 184 174 165 155 151 164 204 179 165 176 189 192 184 188 193 191 196 193 185 180 173 162 160 161 173 170 162 155 138 160 151 143 140 137 133 131 134 141 130 123 108 90
13 45 56 34 313 311 44 180 249 180 164 154 141 149 189 192 211 207 202 191 195 206 200 196 199 198 195 184 175 196 186 184 182 182 153 151 171 165 169 158 148 140 141 148 146 141 141 136 112
75 76 180 199 280 321 31 175 218 181 177 195 157 131 250 199 202 207 198 199 205 210 212 205 203 205 206 201 189 189 196 190 200 204 179 173 177 186 176 165 157 153 162 158 155 158 161 168 176
5 91 126 247 271 3 346 96 55 180 183 141 195 204 260 198 196 196 200 210 218 223 222 218 210 210 214 214 208 198 188 183 202 208 206 193 185 191 166 168 166 181 178 169 177 179 179 193 208
353 61 178 228 145 296 358 10 34 123 152 182 196 215 250 191 193 196 204 213 218 222 226 224 221 217 216 222 219 213 204 197 200 209 212 212 197 199 212 178 188 199 193 193 200 203 203 213 226
130 130 216 220 152 35 347 9 334 314 173 189 210 244 214 196 201 208 213 219 224 225 224 228 227 227 224 221 223 225 221 215 209 211 216 215 211 209 214 213 210 210 210 214 215 218 220 225 235
195 178 217 244 288 26 336 317 335 166 252 206 255 282 213 202 209 218 227 231 240 240 235 235 231 232 232 230 227 226 230 230 224 219 220 220 219 219 220 221 223 224 223 224 227 230 235 239 244
200 221 218 205 234 326 315 321 304 260 240 246 301 297 242 217 222 229 233 236 236 240 245 243 240 236 232 235 235 234 233 234 231 228 228 229 228 227 226 226 230 231 231 232 233 237 241 245 250
220 234 224 239 280 286 279 273 259 264 260 281 290 289 256 241 239 244 243 244 246 246 248 244 242 241 236 237 238 238 238 235 237 236 236 238 236 234 233 232 234 236 239 240 240 242 245 249 255
229 204 258 279 282 281 240 268 270 213 241 249 280 291 266 248 256 247 244 244 249 252 252 251 244 243 242 241 241 243 246 239 236 238 243 246 245 242 241 241 243 242 245 244 245 247 249 250 252
260 316 308 227 222 249 213 278 241 244 254 270 273 275 266 260 265 264 262 256 258 264 258 254 251 247 245 246 246 247 249 250 241 242 244 246 247 246 245 245 247 248 249 249 246 246 250 253 255
155 134 237 266 195 230 163 260 263 241 259 264 267 268 260 267 270 269 271 267 265 264 265 261 252 249 249 248 248 248 248 248 246 244 245 246 248 250 250 250 250 250 250 250 250 249 251 255 255
332 179 220 291 205 173 194 252 252 239 244 257 259 267 266 271 277 273 266 273 269 270 267 265 256 252 251 250 250 250 250 250 251 251 248 245 248 250 252 252 253 251 251 250 251 252 253 255 257
187 186 226 209 222 210 229 248 263 257 270 269 264 264 271 280 266 273 281 285 287 286 272 265 259 256 255 251 249 250 251 251 252 252 252 251 250 250 252 254 252 249 249 249 250 252 254 257 260
162 194 196 221 244 192 237 257 258 270 267 264 265 267 262 264 271 274 275 279 276 276 277 270 264 261 254 249 247 247 248 248 249 252 251 252 253 254 255 255 252 248 248 250 252 254 256 257 258
198 212 214 270 265 175 293 273 265 260 264 253 261 269 268 267 262 262 267 268 268 276 271 268 266 265 260 258 256 253 253 254 255 256 256 257 254 253 254 254 254 252 252 251 250 249 250 254 252
222 214 178 170 319 277 22 288 267 243 255 261 258 261 261 253 252 248 254 267 273 277 272 267 270 268 267 267 259 255 253 256 257 254 254 254 254 254 252 254 255 256 254 255 255 252 251 252 253
221 222 144 173 121 233 148 270 216 227 239 239 241 234 238 247 253 258 263 271 278 279 277 270 268 270 269 267 259 258 257 256 261 264 262 260 259 258 255 254 254 256 257 254 256 257 253 252 253
223 159 201 184 220 33 243 266 272 221 240 235 247 248 252 261 267 270 271 277 284 289 282 280 274 271 267 264 265 263 260 262 265 264 266 269 268 260 260 257 255 255 255 257 256 257 256 254 253
130 82 86 148 175 233 236 195 270 225 203 215 250 257 262 267 272 281 283 283 290 289 282 285 282 274 268 264 264 262 265 266 266 267 268 269 272 271 264 260 259 257 256 258 259 259 260 257 257
170 126 163 210 209 230 186 175 242 263 331 216 262 268 268 277 280 282 284 286 284 279 280 279 274 288 274 268 266 266 265 265 266 269 271 271 271 273 276 272 265 261 260 260 259 260 261 260 257
196 192 182 205 198 235 149 223 234 141 233 254 261 269 275 277 287 291 298 320 42 37 12 325 299 292 284 273 272 273 270 268 269 270 272 273 273 275 277 278 277 271 268 265 261 260 262 263 263
188 209 200 98 123 75 211 284 300 258 246 251 273 277 272 291 101 94 77 67 68 65 44 36 32 25 326 298 281 277 278 277 277 278 278 277 278 278 278 280 279 278 277 272 267 263 265 266 266
179 148 191 207 209 227 244 250 230 246 246 253 268 125 94 115 99 90 81 66 51 34 16 4 0 10 6 352 322 293 282 281 280 280 279 279 279 279 279 279 279 279 279 277 271 265 267 267 267
168 194 208 187 196 204 231 248 202 223 216 176 164 103 112 107 100 92 67 36 13 353 338 335 327 326 322 321 319 314 310 304 293 282 279 279 280 279 278 279 278 278 277 274 273 270 266 265 269
202 205 199 200 221 223 205 245 219 231 199 158 137 128 123 115 103 71 33 24 16 11 2 344 325 322 323 315 313 311 307 303 303 306 299 282 276 278 278 278 279 278 277 276 275 274 271 271 267